Location: Newark
(43.0000°N, 1.6781°W)
Time: 05:14:03
(UTC+00:00)

N. Korean satellite - Pass Details

Date: 10 December 2021
Orbit: 447 x 491 km, 97.3° (Epoch: 25 January)

Event Time Altitude Azimuth Distance (km) Brightness Sun altitude
Rises 05:05:30 0° 17° (NNE) 2,458 10.2 -25.0°
Enters shadow 05:07:25 - 23° (NNE) 1,651 9.4 -24.7°
Exits shadow 05:09:59 37° 54° (NE) 715 7.7 -24.2°
Maximum altitude 05:10:52 48° 100° (E) 598 7.3 -24.0°
Drops below altitude 10° 05:14:08 10° 175° (S) 1,576 9.3 -23.5°
Sets 05:16:13 0° 181° (S) 2,448 10.2 -23.1°
